﻿Дата;Google;AdRiver
2015-09-16;1;0
2015-09-14;1;0
2015-09-13;1;0
2015-07-28;1;0
2015-07-18;2;0
2015-07-17;1;0
2015-07-16;3;0
2015-07-15;1;0
2015-07-14;1;0
2015-07-13;1;0
2015-07-11;2;0
2015-07-10;1;0
2015-07-07;1;0
2015-07-06;3;0
2015-07-05;1;0
2015-07-04;1;0
2015-07-02;3;0
2015-07-01;1;0
2015-06-30;3;0
2015-06-28;2;0
2015-06-24;3;0
2015-06-22;2;0
2015-06-20;2;0
2015-06-19;2;0
2015-06-18;1;0
2015-06-17;1;0
2015-06-16;4;0
2015-05-16;1;0
2015-05-15;3;0
2015-05-14;4;0
2015-05-13;3;0
2015-05-12;2;0
2015-05-11;3;0
2015-05-10;1;0
2015-05-09;3;0
2015-05-08;2;0
2015-05-07;6;0
2015-05-06;1;0
2015-05-03;3;0
2015-05-02;5;0
2015-05-01;6;0
2015-04-30;1;0
2015-04-24;1;0
2015-04-23;5;0
2015-04-22;3;0
2015-04-21;1;0
2014-06-29;1;0
2014-06-24;8;0
2014-06-23;9;0
2014-06-22;7;0
2014-06-21;11;0
2014-06-20;9;0
2014-06-10;13;0
2014-06-09;14;0
2014-06-08;10;0
2014-06-07;7;0
2014-06-06;16;0
2014-06-05;18;0
2014-06-04;15;0
2014-06-03;12;0
2014-06-02;7;0
2014-06-01;11;0
2014-05-31;13;0
2014-05-30;18;0
2014-05-29;11;0
2014-05-28;10;0
2014-05-27;12;0
2014-05-26;14;0
2014-05-25;21;0
2014-05-24;15;0
2014-05-23;17;0
2014-05-22;21;0
2014-05-21;11;0
2014-05-20;7;0
2014-05-19;2;0
2014-05-18;5;0
2014-05-17;9;0
2014-05-16;5;0
2014-05-15;1;0
2014-05-12;11;0
2014-05-11;16;0
2014-05-10;10;0
2014-05-09;18;1
2014-05-08;10;0
2014-05-07;18;0
2014-05-06;11;0
2014-05-05;7;0
2014-05-04;11;0
2014-05-03;12;0
2014-05-02;12;0
2014-05-01;14;0
2014-04-30;20;0
2014-04-29;23;0
2014-04-28;23;0
2014-04-27;18;0
2014-04-26;9;0
2014-04-25;13;0
2014-04-24;12;0
2014-04-23;15;0
2014-04-20;12;0
2014-04-19;15;0
2014-04-18;22;0
2014-04-17;6;0
2014-04-16;8;0
2014-04-15;20;0
2014-04-14;6;0
2014-04-13;8;0
2014-04-12;17;0
2014-04-11;13;0
2014-04-10;13;0
2014-04-09;11;0
2014-04-08;14;0
2014-04-07;11;0
2014-04-06;1;0
2014-04-05;16;0
2014-04-04;17;0
2014-04-03;11;0
2014-04-02;7;0
2014-03-29;1;0
2014-03-28;17;0
2014-03-27;14;0
2014-03-26;14;0
2014-03-25;2;0
2014-03-24;11;0
2014-03-23;5;0
2014-03-22;9;0
2014-03-21;9;0
2014-03-20;13;0
2014-03-19;11;0
2014-03-18;7;0
2014-03-17;12;0
2014-03-04;10;0
2014-03-03;6;0
2014-03-02;16;0
2014-03-01;6;0
2014-02-28;6;0
2014-02-27;10;0
2014-02-26;9;0
2014-02-25;10;0
2014-02-24;8;0
2014-02-23;10;0
2014-02-22;13;0
2014-02-21;13;0
2014-02-20;9;0
2014-02-19;12;0
2014-02-18;9;0
2014-02-17;6;0
2014-02-16;11;0
2014-02-15;8;0
2014-02-14;2;0
2013-11-29;4;0
2013-11-28;4;0
2013-11-27;6;0
2013-11-26;4;0
2013-11-25;1;0
2013-11-24;4;0
2013-11-22;5;0
2013-11-21;2;0
2013-11-20;3;0
2013-11-19;3;0
2013-11-17;1;0
2013-11-16;1;0
2013-11-15;4;0
2013-11-14;7;0
2013-11-13;3;0
2013-11-12;2;0
2013-11-11;3;0
2013-11-08;4;0
2013-11-07;1;0
2013-11-06;3;0
2013-11-05;5;0
2013-11-04;5;0
2013-11-03;3;0
2013-11-02;4;0
2013-11-01;3;0
2013-10-30;1;0
2013-10-28;1;0
2013-10-26;2;0
2013-10-25;1;0
2013-10-22;1;0
2013-10-21;1;0
2013-10-20;1;0
2013-10-19;1;0
2013-09-18;1;0
2013-09-12;2;0
2013-09-11;5;0
2013-09-10;2;0
2013-09-09;5;0
2013-09-08;3;0
2013-09-07;5;0
2013-09-06;2;0
2013-09-05;1;0
2013-09-04;3;0
2013-08-17;1;0
2013-08-16;1;0
2013-08-15;3;0
2013-08-14;5;0
2013-08-13;1;0
2013-08-12;3;0
2013-08-11;5;0
2013-08-10;2;0
2013-08-09;5;0
2013-08-08;5;0
2013-08-07;2;0
2013-08-06;2;0
2013-07-27;4;0
2013-07-26;5;0
2013-07-25;6;0
2013-07-24;5;0
2013-07-23;9;0
2013-07-22;3;0
2013-07-20;1;0
2013-07-19;1;0
2013-07-18;1;0
2013-07-17;3;0
2013-07-16;2;0
2013-07-14;1;0
2013-07-13;4;0
2013-07-12;6;0
2013-07-11;4;0
2013-07-10;3;0
2013-07-09;6;0
2013-07-08;4;0
2013-07-07;3;0
2013-07-06;3;0
2013-07-05;2;0
2013-07-04;1;0
2013-06-08;1;0
2013-06-07;2;0
2013-06-06;1;0
2013-06-05;1;0
2013-06-01;1;0
2013-05-31;1;0
2013-05-29;1;0
2013-05-28;2;0
2013-05-27;1;0
2013-05-21;1;0
2013-05-19;1;0
2013-05-18;1;0
2013-05-16;1;0
2013-05-05;2;0
2013-05-01;1;0
2013-04-30;1;0
2013-04-27;3;0
2013-04-24;2;0
2012-09-03;1;0
2012-04-25;1;0
2012-04-24;1;0
2012-04-19;1;0
2012-04-17;1;0
2012-04-16;1;0
2012-04-09;1;0
2012-04-08;1;0
2012-04-06;1;0
2012-02-12;1;0
2012-02-11;1;0
2012-02-09;1;0
2012-02-06;3;0
2012-02-05;5;0
2012-02-04;2;0
2012-02-02;4;0
2012-02-01;4;0
2012-01-31;1;0
2012-01-29;1;0
2012-01-28;7;0
2012-01-27;11;0
2012-01-26;13;0
2012-01-25;8;0
2012-01-24;4;0
2012-01-23;7;0
2012-01-22;4;0
2012-01-21;5;0
2012-01-20;7;0
2012-01-19;6;0
2012-01-18;4;0
2012-01-17;5;0
2012-01-16;3;0
2012-01-15;6;0
2012-01-14;3;0
2012-01-13;5;0
2012-01-12;3;0
2012-01-11;1;0
2011-11-12;2;0
2011-11-11;5;0
2011-11-10;4;0
2011-11-09;3;0
2011-11-08;4;0
2011-11-07;9;0
2011-11-06;1;0
2011-11-05;9;0
2011-11-04;6;0
2011-11-03;4;0
2011-11-02;7;0
2011-11-01;4;0
2011-10-31;6;0
2011-10-30;6;0
2011-10-29;8;0
2011-10-28;7;0
2011-10-27;5;0
2011-10-26;1;0
2011-09-12;1;0
2011-09-11;5;0
2011-09-10;2;0
2011-09-09;3;0
2011-09-08;1;0
2011-09-07;4;0
2011-09-06;4;0
2011-09-05;2;0
2011-09-04;2;0
2011-09-03;4;0
2011-09-02;6;0
2011-09-01;1;0
2011-08-31;3;0
2011-08-30;5;0
2011-08-29;12;0
2011-08-28;1;0
2011-08-26;4;0
2011-08-25;3;0
2011-08-24;4;0
2011-08-23;6;0
2011-08-22;5;0
2011-08-21;10;0
2011-08-20;9;0
2011-08-19;6;0
2011-08-18;4;0
2011-08-17;8;0
2011-08-16;4;0
2011-08-15;6;0
2011-08-14;2;0
2011-08-13;5;0
2011-08-12;1;0
2011-08-11;1;0
2011-08-08;1;0
2011-07-10;3;0
2011-07-09;2;0
2011-07-07;6;0
2011-07-06;1;0
2011-07-05;3;0
2011-07-04;5;0
2011-07-03;5;0
2011-07-02;4;0
2011-07-01;7;0
2011-06-30;8;0
2011-06-29;12;0
2011-06-28;4;0
2011-06-27;6;0
2011-06-26;5;0
2011-06-25;6;0
2011-06-11;1;0
2011-06-10;3;0
2011-06-09;10;0
2011-06-08;13;0
2011-06-07;10;0
2011-06-06;10;0
2011-06-05;10;0
2011-06-04;9;0
2011-06-03;3;0
2011-06-02;14;0
2011-06-01;11;0
2011-05-31;10;0
2011-05-30;10;0
2011-05-29;6;0
2011-05-28;5;0
2011-05-27;9;0
2011-05-26;11;0
2011-05-25;10;0
2011-05-24;9;0
2011-05-23;6;0
2011-05-22;10;0
2011-05-21;7;0
2011-05-20;7;0
2011-05-19;5;0
2011-05-18;8;0
2011-05-17;6;0
2011-05-16;11;0
2011-05-15;11;0
2011-05-14;13;0
2011-05-13;6;0
2011-05-12;4;0
2011-05-11;10;0
2011-05-10;7;0
2011-05-09;2;0
2011-05-08;8;0
2011-05-07;4;0
2011-05-06;7;0
2011-05-05;7;0
2011-05-04;7;0
2011-05-03;1;0
2011-04-30;3;0
2011-04-29;1;0
2011-04-28;5;0
2011-04-27;4;0
2011-04-26;4;0
2011-04-20;1;0
2011-04-19;3;0
2011-04-18;4;0
2011-04-17;7;0
2011-04-16;7;0
2011-04-15;3;0
2011-04-14;3;0
2011-04-13;7;0
2011-04-12;8;0
2011-04-11;13;0
2011-04-10;7;0
2011-04-09;11;0
2011-04-08;7;0
2011-04-07;10;0
2011-04-06;3;0
2011-04-05;8;0
2011-04-04;6;0
2011-04-03;9;0
2011-04-02;11;0
2011-04-01;7;0
2011-03-31;6;0
2011-03-29;8;0
2011-03-28;4;0
2011-03-25;1;0
2011-03-24;1;0
2011-03-23;1;0
2011-03-13;1;0
2011-03-11;3;0
2011-03-09;1;0
2011-03-08;1;0
2011-03-04;1;0
2011-03-03;1;0
2011-03-01;1;0
2011-02-28;1;0
2011-02-27;3;0
2011-02-26;3;0
2011-02-25;6;0
2011-02-24;4;0
2011-02-23;2;0
